Time,TemperatureF,DewpointF,PressureIn,WindDirection,WindDirectionDegrees,WindSpeedMPH,WindSpeedGustMPH,Humidity,HourlyPrecipIn,Conditions,Clouds,dailyrainin,SoftwareType,DateUTC
2013-07-10 00:00:00,72.7,61.1,28.67,NNW,338,3.4,3.6,67,0.00,,,0.00,VWS V14.01,2013-07-10 05:00:00,
2013-07-10 00:05:00,72.5,61.3,28.67,NW,315,3.4,3.8,68,0.00,,,0.00,VWS V14.01,2013-07-10 05:05:00,
2013-07-10 00:10:00,72.3,61.2,28.67,NNW,338,3.8,3.8,68,0.00,,,0.00,VWS V14.01,2013-07-10 05:10:00,
2013-07-10 00:15:00,72.1,61.0,28.67,NNW,338,1.3,3.8,68,0.00,,,0.00,VWS V14.01,2013-07-10 05:15:00,
2013-07-10 00:20:00,72.0,60.8,28.67,NNW,338,0.0,2.9,68,0.00,,,0.00,VWS V14.01,2013-07-10 05:20:00,
2013-07-10 00:25:00,71.6,60.5,28.67,NNW,338,0.0,2.7,68,0.00,,,0.00,VWS V14.01,2013-07-10 05:25:00,
2013-07-10 00:30:00,71.4,60.3,28.67,NW,315,1.1,3.4,68,0.00,,,0.00,VWS V14.01,2013-07-10 05:30:00,
2013-07-10 00:35:00,71.1,60.0,28.67,NNW,338,0.0,1.1,68,0.00,,,0.00,VWS V14.01,2013-07-10 05:35:00,
2013-07-10 00:40:00,70.9,60.2,28.67,NNW,338,0.0,2.2,69,0.00,,,0.00,VWS V14.01,2013-07-10 05:40:00,
2013-07-10 00:45:00,70.9,60.6,28.67,NNW,338,2.7,2.7,70,0.00,,,0.00,VWS V14.01,2013-07-10 05:45:00,
2013-07-10 00:50:00,70.7,60.5,28.67,NNW,338,0.0,2.7,70,0.00,,,0.00,VWS V14.01,2013-07-10 05:50:00,
2013-07-10 00:55:00,70.2,59.5,28.67,NNW,338,0.0,0.0,69,0.00,,,0.00,VWS V14.01,2013-07-10 05:55:00,
2013-07-10 01:00:00,69.6,59.0,28.67,NNW,338,0.0,0.0,69,0.00,,,0.00,VWS V14.01,2013-07-10 06:00:00,
2013-07-10 01:05:00,69.3,59.1,28.67,NNW,338,2.5,2.7,70,0.00,,,0.00,VWS V14.01,2013-07-10 06:05:00,
2013-07-10 01:10:00,69.1,59.3,28.67,NNW,338,2.0,2.5,71,0.00,,,0.00,VWS V14.01,2013-07-10 06:10:00,
2013-07-10 01:15:00,69.1,59.7,28.67,NNE,22,0.0,2.9,72,0.00,,,0.00,VWS V14.01,2013-07-10 06:15:00,
2013-07-10 01:20:00,68.7,59.3,28.67,NNW,338,0.0,1.1,72,0.00,,,0.00,VWS V14.01,2013-07-10 06:20:00,
2013-07-10 01:25:00,68.4,59.0,28.67,NNW,338,0.0,0.0,72,0.00,,,0.00,VWS V14.01,2013-07-10 06:25:00,
2013-07-10 01:30:00,68.2,58.8,28.67,NNW,338,2.5,2.5,72,0.00,,,0.00,VWS V14.01,2013-07-10 06:30:00,
2013-07-10 01:35:00,68.4,59.8,28.67,NNW,338,2.9,2.9,74,0.00,,,0.00,VWS V14.01,2013-07-10 06:35:00,
2013-07-10 01:40:00,68.9,62.1,28.67,NNW,338,3.1,3.1,79,0.00,,,0.00,VWS V14.01,2013-07-10 06:40:00,
2013-07-10 01:45:00,68.9,62.1,28.67,NNW,338,3.4,3.4,79,0.00,,,0.00,VWS V14.01,2013-07-10 06:45:00,
2013-07-10 01:50:00,68.7,61.6,28.67,NW,315,2.9,3.4,78,0.00,,,0.00,VWS V14.01,2013-07-10 06:50:00,
2013-07-10 01:55:00,68.4,60.9,28.67,NNW,338,0.0,2.9,77,0.00,,,0.00,VWS V14.01,2013-07-10 06:55:00,
2013-07-10 02:00:00,68.7,62.0,28.67,NNW,338,3.8,3.8,79,0.00,,,0.00,VWS V14.01,2013-07-10 07:00:00,
2013-07-10 02:05:00,68.9,62.5,28.67,NNW,338,2.0,4.0,80,0.00,,,0.00,VWS V14.01,2013-07-10 07:05:00,
2013-07-10 02:10:00,69.4,63.0,28.67,ENE,68,0.0,4.0,80,0.00,,,0.00,VWS V14.01,2013-07-10 07:10:00,
2013-07-10 02:15:00,69.6,62.8,28.67,WNW,292,0.0,5.4,79,0.00,,,0.00,VWS V14.01,2013-07-10 07:15:00,
2013-07-10 02:20:00,69.6,62.5,28.67,NNW,338,2.9,3.8,78,0.00,,,0.00,VWS V14.01,2013-07-10 07:20:00,
2013-07-10 02:25:00,69.6,62.1,28.67,WNW,292,0.0,3.4,77,0.00,,,0.00,VWS V14.01,2013-07-10 07:25:00,
2013-07-10 02:30:00,69.4,61.9,28.70,WNW,292,0.0,4.0,77,0.00,,,0.00,VWS V14.01,2013-07-10 07:30:00,
2013-07-10 02:35:00,69.8,62.3,28.70,WNW,292,0.0,5.6,77,0.00,,,0.00,VWS V14.01,2013-07-10 07:35:00,
2013-07-10 02:40:00,69.6,61.7,28.70,NW,315,4.0,6.7,76,0.00,,,0.00,VWS V14.01,2013-07-10 07:40:00,
2013-07-10 02:45:00,69.6,61.7,28.70,WNW,292,3.1,4.0,76,0.00,,,0.00,VWS V14.01,2013-07-10 07:45:00,
2013-07-10 02:50:00,69.4,61.5,28.70,WNW,292,3.6,3.6,76,0.00,,,0.00,VWS V14.01,2013-07-10 07:50:00,
2013-07-10 02:55:00,69.3,61.4,28.70,WNW,292,2.9,3.8,76,0.00,,,0.00,VWS V14.01,2013-07-10 07:55:00,
2013-07-10 03:00:00,69.1,61.2,28.70,West,270,1.6,6.0,76,0.00,,,0.00,VWS V14.01,2013-07-10 08:00:00,
2013-07-10 03:05:00,68.9,61.0,28.70,WNW,292,2.2,3.4,76,0.00,,,0.00,VWS V14.01,2013-07-10 08:05:00,
2013-07-10 03:10:00,68.9,61.0,28.70,SE,135,2.0,3.6,76,0.00,,,0.00,VWS V14.01,2013-07-10 08:10:00,
2013-07-10 03:15:00,68.7,60.9,28.70,NNW,338,0.0,3.6,76,0.00,,,0.00,VWS V14.01,2013-07-10 08:15:00,
2013-07-10 03:20:00,68.7,61.6,28.70,NNE,22,1.6,3.8,78,0.00,,,0.00,VWS V14.01,2013-07-10 08:20:00,
2013-07-10 03:25:00,68.5,61.4,28.70,WNW,292,2.7,4.0,78,0.00,,,0.00,VWS V14.01,2013-07-10 08:25:00,
2013-07-10 03:30:00,68.5,61.8,28.70,WNW,292,2.9,4.7,79,0.00,,,0.00,VWS V14.01,2013-07-10 08:30:00,
2013-07-10 03:35:00,68.5,62.1,28.70,WNW,292,3.6,6.5,80,0.00,,,0.00,VWS V14.01,2013-07-10 08:35:00,
2013-07-10 03:40:00,68.4,62.0,28.70,WNW,292,2.5,4.3,80,0.00,,,0.00,VWS V14.01,2013-07-10 08:40:00,
2013-07-10 03:45:00,68.4,62.0,28.70,NW,315,2.7,3.6,80,0.00,,,0.00,VWS V14.01,2013-07-10 08:45:00,
2013-07-10 03:50:00,68.2,61.4,28.70,NW,315,1.6,3.6,79,0.00,,,0.00,VWS V14.01,2013-07-10 08:50:00,
2013-07-10 03:55:00,67.8,61.1,28.70,NW,315,1.6,2.7,79,0.00,,,0.00,VWS V14.01,2013-07-10 08:55:00,
2013-07-10 04:00:00,67.5,60.4,28.73,NNW,338,1.1,2.7,78,0.00,,,0.00,VWS V14.01,2013-07-10 09:00:00,
2013-07-10 04:05:00,67.3,60.2,28.73,WNW,292,3.1,3.1,78,0.00,,,0.00,VWS V14.01,2013-07-10 09:05:00,
2013-07-10 04:10:00,67.1,60.0,28.73,NNE,22,3.1,3.1,78,0.00,,,0.00,VWS V14.01,2013-07-10 09:10:00,
2013-07-10 04:15:00,66.9,59.1,28.73,NW,315,0.0,3.8,76,0.00,,,0.00,VWS V14.01,2013-07-10 09:15:00,
2013-07-10 04:20:00,66.6,58.4,28.73,SE,135,0.0,4.0,75,0.00,,,0.00,VWS V14.01,2013-07-10 09:20:00,
2013-07-10 04:25:00,66.2,58.0,28.73,NW,315,0.0,1.6,75,0.00,,,0.00,VWS V14.01,2013-07-10 09:25:00,
2013-07-10 04:30:00,65.8,57.7,28.73,NW,315,0.0,3.1,75,0.00,,,0.00,VWS V14.01,2013-07-10 09:30:00,
2013-07-10 04:35:00,65.7,57.5,28.73,NNW,338,0.0,2.5,75,0.00,,,0.00,VWS V14.01,2013-07-10 09:35:00,
2013-07-10 04:40:00,65.3,57.5,28.73,NNE,22,2.9,2.9,76,0.00,,,0.00,VWS V14.01,2013-07-10 09:40:00,
2013-07-10 04:45:00,65.3,57.9,28.73,SW,225,1.6,4.0,77,0.00,,,0.00,VWS V14.01,2013-07-10 09:45:00,
2013-07-10 04:50:00,65.3,57.9,28.73,NE,45,1.6,3.8,77,0.00,,,0.00,VWS V14.01,2013-07-10 09:50:00,
2013-07-10 04:55:00,65.1,58.1,28.73,WNW,292,1.6,2.9,78,0.00,,,0.00,VWS V14.01,2013-07-10 09:55:00,
2013-07-10 05:00:00,64.9,57.9,28.73,NNW,338,2.9,4.0,78,0.00,,,0.00,VWS V14.01,2013-07-10 10:00:00,
2013-07-10 05:05:00,64.8,58.1,28.73,NW,315,0.9,5.4,79,0.00,,,0.00,VWS V14.01,2013-07-10 10:05:00,
2013-07-10 05:10:00,64.4,57.4,28.73,WNW,292,2.9,4.0,78,0.00,,,0.00,VWS V14.01,2013-07-10 10:10:00,
2013-07-10 05:15:00,64.4,57.4,28.73,NNW,338,2.9,4.7,78,0.00,,,0.00,VWS V14.01,2013-07-10 10:15:00,
2013-07-10 05:20:00,64.2,57.2,28.73,West,270,1.1,5.8,78,0.00,,,0.00,VWS V14.01,2013-07-10 10:20:00,
2013-07-10 05:25:00,64.2,57.2,28.73,WNW,292,2.2,4.3,78,0.00,,,0.00,VWS V14.01,2013-07-10 10:25:00,
2013-07-10 05:30:00,64.2,56.9,28.73,WNW,292,3.1,7.6,77,0.00,,,0.00,VWS V14.01,2013-07-10 10:30:00,
2013-07-10 05:35:00,64.0,56.3,28.73,NW,315,4.0,4.7,76,0.00,,,0.00,VWS V14.01,2013-07-10 10:35:00,
2013-07-10 05:40:00,63.9,56.2,28.73,WNW,292,1.3,4.0,76,0.00,,,0.00,VWS V14.01,2013-07-10 10:40:00,
2013-07-10 05:45:00,63.9,56.2,28.73,WNW,292,2.7,3.4,76,0.00,,,0.00,VWS V14.01,2013-07-10 10:45:00,
2013-07-10 05:50:00,63.7,55.6,28.73,NW,315,3.4,5.6,75,0.00,,,0.00,VWS V14.01,2013-07-10 10:50:00,
2013-07-10 05:55:00,63.7,54.9,28.73,NNW,338,3.6,4.0,73,0.00,,,0.00,VWS V14.01,2013-07-10 10:55:00,
2013-07-10 06:00:00,63.5,54.3,28.73,WNW,292,2.7,8.5,72,0.00,,,0.00,VWS V14.01,2013-07-10 11:00:00,
2013-07-10 06:05:00,63.5,53.9,28.73,ENE,68,3.8,5.6,71,0.00,,,0.00,VWS V14.01,2013-07-10 11:05:00,
2013-07-10 06:10:00,63.5,53.9,28.73,WSW,248,4.3,4.3,71,0.00,,,0.00,VWS V14.01,2013-07-10 11:10:00,
2013-07-10 06:15:00,63.9,53.9,28.73,WNW,292,3.6,4.3,70,0.00,,,0.00,VWS V14.01,2013-07-10 11:15:00,
2013-07-10 06:20:00,64.4,52.8,28.73,West,270,1.6,6.9,66,0.00,,,0.00,VWS V14.01,2013-07-10 11:20:00,
2013-07-10 06:25:00,64.9,52.5,28.73,NNW,338,4.9,5.8,64,0.00,,,0.00,VWS V14.01,2013-07-10 11:25:00,
2013-07-10 06:30:00,65.3,52.0,28.76,WNW,292,3.1,6.9,62,0.00,,,0.00,VWS V14.01,2013-07-10 11:30:00,
2013-07-10 06:35:00,65.8,51.6,28.76,NNW,338,4.0,5.6,60,0.00,,,0.00,VWS V14.01,2013-07-10 11:35:00,
2013-07-10 06:40:00,66.2,51.0,28.76,West,270,1.3,4.7,58,0.00,,,0.00,VWS V14.01,2013-07-10 11:40:00,
2013-07-10 06:45:00,66.6,50.4,28.76,West,270,1.6,6.3,56,0.00,,,0.00,VWS V14.01,2013-07-10 11:45:00,
2013-07-10 06:50:00,67.1,50.4,28.76,WNW,292,3.4,4.9,55,0.00,,,0.00,VWS V14.01,2013-07-10 11:50:00,
2013-07-10 06:55:00,67.6,49.9,28.76,West,270,3.8,5.8,53,0.00,,,0.00,VWS V14.01,2013-07-10 11:55:00,
2013-07-10 07:00:00,68.0,48.7,28.76,WNW,292,3.6,4.7,50,0.00,,,0.00,VWS V14.01,2013-07-10 12:00:00,
2013-07-10 07:05:00,68.2,48.3,28.76,WNW,292,1.6,6.7,49,0.00,,,0.00,VWS V14.01,2013-07-10 12:05:00,
2013-07-10 07:10:00,68.5,47.0,28.76,NNW,338,7.8,7.8,46,0.00,,,0.00,VWS V14.01,2013-07-10 12:10:00,
2013-07-10 07:15:00,68.9,47.9,28.76,WNW,292,1.6,7.8,47,0.00,,,0.00,VWS V14.01,2013-07-10 12:15:00,
2013-07-10 07:20:00,69.3,47.6,28.76,NNW,338,3.6,6.0,46,0.00,,,0.00,VWS V14.01,2013-07-10 12:20:00,
2013-07-10 07:25:00,69.8,46.9,28.76,WNW,292,4.9,6.0,44,0.00,,,0.00,VWS V14.01,2013-07-10 12:25:00,
2013-07-10 07:30:00,69.8,46.9,28.76,WNW,292,3.1,6.0,44,0.00,,,0.00,VWS V14.01,2013-07-10 12:30:00,
2013-07-10 07:35:00,70.5,47.0,28.76,NNE,22,7.2,8.5,43,0.00,,,0.00,VWS V14.01,2013-07-10 12:35:00,
2013-07-10 07:40:00,70.7,47.1,28.76,SSW,202,1.3,7.2,43,0.00,,,0.00,VWS V14.01,2013-07-10 12:40:00,
2013-07-10 07:45:00,71.1,46.8,28.76,NNW,338,2.7,7.8,42,0.00,,,0.00,VWS V14.01,2013-07-10 12:45:00,
2013-07-10 07:50:00,71.2,47.0,28.76,WNW,292,3.1,6.0,42,0.00,,,0.00,VWS V14.01,2013-07-10 12:50:00,
2013-07-10 07:55:00,71.8,46.8,28.76,SSW,202,3.4,5.4,41,0.00,,,0.00,VWS V14.01,2013-07-10 12:55:00,
2013-07-10 08:00:00,72.7,48.3,28.79,WNW,292,5.6,5.6,42,0.00,,,0.00,VWS V14.01,2013-07-10 13:00:00,
2013-07-10 08:05:00,73.4,47.6,28.79,NNW,338,4.3,5.6,40,0.00,,,0.00,VWS V14.01,2013-07-10 13:05:00,
2013-07-10 08:10:00,73.8,46.6,28.79,WSW,248,2.7,5.4,38,0.00,,,0.00,VWS V14.01,2013-07-10 13:10:00,
2013-07-10 08:15:00,73.8,46.6,28.76,NNW,338,2.2,8.1,38,0.00,,,0.00,VWS V14.01,2013-07-10 13:15:00,
2013-07-10 08:20:00,74.1,46.2,28.76,WNW,292,3.1,7.4,37,0.00,,,0.00,VWS V14.01,2013-07-10 13:20:00,
2013-07-10 08:25:00,74.7,46.0,28.76,WSW,248,2.7,6.0,36,0.00,,,0.00,VWS V14.01,2013-07-10 13:25:00,
2013-07-10 08:30:00,74.8,46.1,28.76,NNE,22,2.7,8.5,36,0.00,,,0.00,VWS V14.01,2013-07-10 13:30:00,
2013-07-10 08:35:00,74.7,45.2,28.76,SW,225,3.4,10.1,35,0.00,,,0.00,VWS V14.01,2013-07-10 13:35:00,
2013-07-10 08:40:00,74.7,45.2,28.76,WNW,292,0.9,10.7,35,0.00,,,0.00,VWS V14.01,2013-07-10 13:40:00,
2013-07-10 08:45:00,75.0,44.8,28.79,SW,225,3.1,5.6,34,0.00,,,0.00,VWS V14.01,2013-07-10 13:45:00,
2013-07-10 08:50:00,75.6,45.2,28.79,NNE,22,5.4,9.6,34,0.00,,,0.00,VWS V14.01,2013-07-10 13:50:00,
2013-07-10 08:55:00,75.4,44.3,28.79,NNW,338,2.9,10.5,33,0.00,,,0.00,VWS V14.01,2013-07-10 13:55:00,
2013-07-10 09:00:00,75.7,45.4,28.76,SSW,202,1.3,10.5,34,0.00,,,0.00,VWS V14.01,2013-07-10 14:00:00,
2013-07-10 09:05:00,76.5,46.0,28.76,NNW,338,6.0,6.3,34,0.00,,,0.00,VWS V14.01,2013-07-10 14:05:00,
2013-07-10 09:10:00,77.0,45.7,28.76,ENE,68,2.9,6.0,33,0.00,,,0.00,VWS V14.01,2013-07-10 14:10:00,
2013-07-10 09:15:00,77.5,47.0,28.79,ESE,112,2.7,7.4,34,0.00,,,0.00,VWS V14.01,2013-07-10 14:15:00,
2013-07-10 09:20:00,78.1,46.7,28.79,NNE,22,3.6,6.3,33,0.00,,,0.00,VWS V14.01,2013-07-10 14:20:00,
2013-07-10 09:25:00,78.3,46.0,28.79,WNW,292,4.3,6.3,32,0.00,,,0.00,VWS V14.01,2013-07-10 14:25:00,
2013-07-10 09:30:00,77.9,45.7,28.76,NE,45,0.0,6.3,32,0.00,,,0.00,VWS V14.01,2013-07-10 14:30:00,
2013-07-10 09:35:00,78.3,46.0,28.76,ESE,112,2.7,8.1,32,0.00,,,0.00,VWS V14.01,2013-07-10 14:35:00,
2013-07-10 09:40:00,78.4,46.2,28.76,NW,315,3.6,5.6,32,0.00,,,0.00,VWS V14.01,2013-07-10 14:40:00,
2013-07-10 09:45:00,79.2,46.8,28.76,West,270,6.3,6.9,32,0.00,,,0.00,VWS V14.01,2013-07-10 14:45:00,
2013-07-10 09:50:00,79.3,46.1,28.76,SSE,158,2.0,8.7,31,0.00,,,0.00,VWS V14.01,2013-07-10 14:50:00,
2013-07-10 09:55:00,79.2,46.0,28.76,NNW,338,4.3,9.4,31,0.00,,,0.00,VWS V14.01,2013-07-10 14:55:00,
2013-07-10 10:00:00,79.3,45.2,28.76,NNW,338,3.1,9.4,30,0.00,,,0.00,VWS V14.01,2013-07-10 15:00:00,
2013-07-10 10:05:00,79.3,45.2,28.76,North,0,4.3,12.3,30,0.00,,,0.00,VWS V14.01,2013-07-10 15:05:00,
2013-07-10 10:10:00,79.9,45.7,28.76,NNE,22,8.5,8.5,30,0.00,,,0.00,VWS V14.01,2013-07-10 15:10:00,
2013-07-10 10:15:00,79.7,45.6,28.76,ESE,112,6.0,13.0,30,0.00,,,0.00,VWS V14.01,2013-07-10 15:15:00,
2013-07-10 10:20:00,79.9,45.7,28.76,NE,45,4.3,8.5,30,0.00,,,0.00,VWS V14.01,2013-07-10 15:20:00,
2013-07-10 10:25:00,80.2,46.0,28.76,WSW,248,2.0,7.4,30,0.00,,,0.00,VWS V14.01,2013-07-10 15:25:00,
2013-07-10 10:30:00,80.2,46.0,28.76,WNW,292,3.6,8.7,30,0.00,,,0.00,VWS V14.01,2013-07-10 15:30:00,
2013-07-10 10:35:00,80.6,46.3,28.76,NNW,338,2.0,6.5,30,0.00,,,0.00,VWS V14.01,2013-07-10 15:35:00,
2013-07-10 10:40:00,81.1,46.8,28.76,NW,315,3.4,8.5,30,0.00,,,0.00,VWS V14.01,2013-07-10 15:40:00,
2013-07-10 10:45:00,80.8,46.5,28.76,WNW,292,2.9,8.1,30,0.00,,,0.00,VWS V14.01,2013-07-10 15:45:00,
2013-07-10 10:50:00,81.1,46.8,28.76,SSE,158,3.1,7.4,30,0.00,,,0.00,VWS V14.01,2013-07-10 15:50:00,
2013-07-10 10:55:00,81.7,47.3,28.76,WNW,292,3.1,8.5,30,0.00,,,0.00,VWS V14.01,2013-07-10 15:55:00,
2013-07-10 11:00:00,81.5,47.1,28.76,North,0,6.0,8.7,30,0.00,,,0.00,VWS V14.01,2013-07-10 16:00:00,
2013-07-10 11:05:00,82.0,47.6,28.76,North,0,3.8,6.5,30,0.00,,,0.00,VWS V14.01,2013-07-10 16:05:00,
2013-07-10 11:10:00,82.0,46.7,28.76,NE,45,5.4,9.8,29,0.00,,,0.00,VWS V14.01,2013-07-10 16:10:00,
2013-07-10 11:15:00,82.2,46.8,28.76,NW,315,3.6,7.4,29,0.00,,,0.00,VWS V14.01,2013-07-10 16:15:00,
2013-07-10 11:20:00,82.2,44.9,28.76,NNE,22,0.9,15.2,27,0.00,,,0.00,VWS V14.01,2013-07-10 16:20:00,
2013-07-10 11:25:00,82.0,45.8,28.76,NW,315,6.3,10.7,28,0.00,,,0.00,VWS V14.01,2013-07-10 16:25:00,
2013-07-10 11:30:00,82.4,46.1,28.79,NNE,22,4.0,10.1,28,0.00,,,0.00,VWS V14.01,2013-07-10 16:30:00,
2013-07-10 11:35:00,82.0,45.8,28.79,NE,45,10.1,10.1,28,0.00,,,0.00,VWS V14.01,2013-07-10 16:35:00,
2013-07-10 11:40:00,81.7,45.4,28.79,NNE,22,4.9,10.3,28,0.00,,,0.00,VWS V14.01,2013-07-10 16:40:00,
2013-07-10 11:45:00,81.7,46.4,28.79,WNW,292,5.6,9.6,29,0.00,,,0.00,VWS V14.01,2013-07-10 16:45:00,
2013-07-10 11:50:00,82.4,47.0,28.79,NNW,338,0.9,8.5,29,0.00,,,0.00,VWS V14.01,2013-07-10 16:50:00,
2013-07-10 11:55:00,82.2,46.8,28.79,NNW,338,6.0,9.6,29,0.00,,,0.00,VWS V14.01,2013-07-10 16:55:00,
2013-07-10 12:00:00,83.5,47.9,28.79,WNW,292,4.9,7.4,29,0.00,,,0.00,VWS V14.01,2013-07-10 17:00:00,
2013-07-10 12:05:00,84.0,48.4,28.79,NW,315,2.0,10.1,29,0.00,,,0.00,VWS V14.01,2013-07-10 17:05:00,
2013-07-10 12:10:00,83.8,46.3,28.79,NNW,338,3.1,6.3,27,0.00,,,0.00,VWS V14.01,2013-07-10 17:10:00,
2013-07-10 12:15:00,84.7,48.1,28.79,NNW,338,4.9,5.6,28,0.00,,,0.00,VWS V14.01,2013-07-10 17:15:00,
2013-07-10 12:20:00,84.0,45.5,28.79,NNE,22,3.6,14.3,26,0.00,,,0.00,VWS V14.01,2013-07-10 17:20:00,
2013-07-10 12:25:00,83.7,45.2,28.79,ENE,68,4.9,7.2,26,0.00,,,0.00,VWS V14.01,2013-07-10 17:25:00,
2013-07-10 12:30:00,83.7,45.2,28.79,NE,45,8.1,12.5,26,0.00,,,0.00,VWS V14.01,2013-07-10 17:30:00,
2013-07-10 12:35:00,82.6,44.3,28.79,NNW,338,7.6,12.3,26,0.00,,,0.00,VWS V14.01,2013-07-10 17:35:00,
2013-07-10 12:40:00,83.1,44.7,28.79,SSW,202,5.6,11.2,26,0.00,,,0.00,VWS V14.01,2013-07-10 17:40:00,
2013-07-10 12:45:00,84.0,45.5,28.76,ENE,68,6.5,8.5,26,0.00,,,0.00,VWS V14.01,2013-07-10 17:45:00,
2013-07-10 12:50:00,83.7,45.2,28.76,North,0,2.5,9.4,26,0.00,,,0.00,VWS V14.01,2013-07-10 17:50:00,
2013-07-10 12:55:00,83.1,43.7,28.76,ENE,68,7.2,10.3,25,0.00,,,0.00,VWS V14.01,2013-07-10 17:55:00,
2013-07-10 13:00:00,82.9,44.6,28.76,ENE,68,8.7,10.1,26,0.00,,,0.00,VWS V14.01,2013-07-10 18:00:00,
2013-07-10 13:05:00,83.3,43.8,28.76,NE,45,9.6,12.5,25,0.00,,,0.00,VWS V14.01,2013-07-10 18:05:00,
2013-07-10 13:10:00,82.9,44.6,28.76,NNE,22,2.7,13.2,26,0.00,,,0.00,VWS V14.01,2013-07-10 18:10:00,
2013-07-10 13:15:00,83.8,43.2,28.79,WNW,292,3.1,6.5,24,0.00,,,0.00,VWS V14.01,2013-07-10 18:15:00,
2013-07-10 13:20:00,84.7,44.0,28.79,ENE,68,2.2,6.5,24,0.00,,,0.00,VWS V14.01,2013-07-10 18:20:00,
2013-07-10 13:25:00,84.9,45.2,28.79,NW,315,3.4,7.8,25,0.00,,,0.00,VWS V14.01,2013-07-10 18:25:00,
2013-07-10 13:30:00,84.2,43.5,28.79,NE,45,9.6,10.1,24,0.00,,,0.00,VWS V14.01,2013-07-10 18:30:00,
2013-07-10 13:35:00,83.7,44.2,28.79,NE,45,6.0,11.2,25,0.00,,,0.00,VWS V14.01,2013-07-10 18:35:00,
2013-07-10 13:40:00,84.6,44.9,28.79,NE,45,9.6,9.6,25,0.00,,,0.00,VWS V14.01,2013-07-10 18:40:00,
2013-07-10 13:45:00,84.6,43.8,28.79,NNE,22,5.6,9.6,24,0.00,,,0.00,VWS V14.01,2013-07-10 18:45:00,
2013-07-10 13:50:00,84.0,43.4,28.79,NE,45,6.0,9.6,24,0.00,,,0.00,VWS V14.01,2013-07-10 18:50:00,
2013-07-10 13:55:00,84.4,42.6,28.79,NE,45,7.4,7.8,23,0.00,,,0.00,VWS V14.01,2013-07-10 18:55:00,
2013-07-10 14:00:00,84.7,44.0,28.79,ENE,68,4.9,7.4,24,0.00,,,0.00,VWS V14.01,2013-07-10 19:00:00,
2013-07-10 14:05:00,84.9,44.1,28.79,NNE,22,4.0,10.1,24,0.00,,,0.00,VWS V14.01,2013-07-10 19:05:00,
2013-07-10 14:10:00,85.3,43.3,28.79,East,90,3.4,5.6,23,0.00,,,0.00,VWS V14.01,2013-07-10 19:10:00,
2013-07-10 14:15:00,86.4,44.2,28.79,ESE,112,2.5,7.8,23,0.00,,,0.00,VWS V14.01,2013-07-10 19:15:00,
2013-07-10 14:20:00,85.8,43.8,28.79,NW,315,4.0,6.0,23,0.00,,,0.00,VWS V14.01,2013-07-10 19:20:00,
2013-07-10 14:25:00,85.6,45.8,28.79,NNE,22,5.4,10.1,25,0.00,,,0.00,VWS V14.01,2013-07-10 19:25:00,
2013-07-10 14:30:00,86.2,44.1,28.79,NE,45,4.3,8.1,23,0.00,,,0.00,VWS V14.01,2013-07-10 19:30:00,
2013-07-10 14:35:00,86.7,45.7,28.79,WSW,248,2.7,6.3,24,0.00,,,0.00,VWS V14.01,2013-07-10 19:35:00,
2013-07-10 14:40:00,86.2,42.9,28.79,NW,315,2.9,5.8,22,0.00,,,0.00,VWS V14.01,2013-07-10 19:40:00,
2013-07-10 14:45:00,86.0,42.8,28.79,NNW,338,2.9,4.3,22,0.00,,,0.00,VWS V14.01,2013-07-10 19:45:00,
2013-07-10 14:50:00,87.3,43.8,28.79,ENE,68,4.7,6.0,22,0.00,,,0.00,VWS V14.01,2013-07-10 19:50:00,
2013-07-10 14:55:00,86.9,44.7,28.79,NNW,338,6.5,6.7,23,0.00,,,0.00,VWS V14.01,2013-07-10 19:55:00,
2013-07-10 15:00:00,86.7,44.5,28.76,NE,45,1.6,6.5,23,0.00,,,0.00,VWS V14.01,2013-07-10 20:00:00,
2013-07-10 15:05:00,86.9,43.5,28.76,NW,315,4.0,7.4,22,0.00,,,0.00,VWS V14.01,2013-07-10 20:05:00,
2013-07-10 15:10:00,87.1,43.7,28.76,NW,315,3.4,6.5,22,0.00,,,0.00,VWS V14.01,2013-07-10 20:10:00,
2013-07-10 15:15:00,87.4,44.0,28.79,ENE,68,2.9,6.0,22,0.00,,,0.00,VWS V14.01,2013-07-10 20:15:00,
2013-07-10 15:20:00,87.8,43.0,28.79,NE,45,2.0,5.8,21,0.00,,,0.00,VWS V14.01,2013-07-10 20:20:00,
2013-07-10 15:25:00,87.1,42.5,28.79,ENE,68,4.9,7.8,21,0.00,,,0.00,VWS V14.01,2013-07-10 20:25:00,
2013-07-10 15:30:00,87.6,44.1,28.76,NNW,338,0.0,7.8,22,0.00,,,0.00,VWS V14.01,2013-07-10 20:30:00,
2013-07-10 15:35:00,87.4,44.0,28.76,NE,45,5.6,7.4,22,0.00,,,0.00,VWS V14.01,2013-07-10 20:35:00,
2013-07-10 15:40:00,86.7,43.4,28.76,ENE,68,0.0,8.1,22,0.00,,,0.00,VWS V14.01,2013-07-10 20:40:00,
2013-07-10 15:45:00,86.9,43.5,28.79,West,270,0.0,5.4,22,0.00,,,0.00,VWS V14.01,2013-07-10 20:45:00,
2013-07-10 15:50:00,87.1,42.5,28.79,WSW,248,3.8,3.8,21,0.00,,,0.00,VWS V14.01,2013-07-10 20:50:00,
2013-07-10 15:55:00,85.6,42.5,28.79,NNW,338,2.7,8.5,22,0.00,,,0.00,VWS V14.01,2013-07-10 20:55:00,
2013-07-10 16:00:00,87.1,43.7,28.76,WNW,292,3.8,4.3,22,0.00,,,0.00,VWS V14.01,2013-07-10 21:00:00,
2013-07-10 16:05:00,87.4,44.0,28.76,NE,45,4.3,5.4,22,0.00,,,0.00,VWS V14.01,2013-07-10 21:05:00,
2013-07-10 16:10:00,87.4,44.0,28.76,ENE,68,6.3,8.7,22,0.00,,,0.00,VWS V14.01,2013-07-10 21:10:00,
2013-07-10 16:15:00,87.4,44.0,28.76,NW,315,3.6,7.4,22,0.00,,,0.00,VWS V14.01,2013-07-10 21:15:00,
2013-07-10 16:20:00,86.2,41.7,28.76,WNW,292,2.7,7.6,21,0.00,,,0.00,VWS V14.01,2013-07-10 21:20:00,
2013-07-10 16:25:00,86.9,42.3,28.76,NW,315,0.0,5.4,21,0.00,,,0.00,VWS V14.01,2013-07-10 21:25:00,
2013-07-10 16:30:00,87.1,42.5,28.76,NE,45,3.1,5.6,21,0.00,,,0.00,VWS V14.01,2013-07-10 21:30:00,
2013-07-10 16:35:00,87.1,42.5,28.76,WNW,292,0.9,7.6,21,0.00,,,0.00,VWS V14.01,2013-07-10 21:35:00,
2013-07-10 16:40:00,86.5,43.2,28.76,NW,315,0.0,5.6,22,0.00,,,0.00,VWS V14.01,2013-07-10 21:40:00,
2013-07-10 16:45:00,86.0,41.6,28.76,NNW,338,3.8,5.4,21,0.00,,,0.00,VWS V14.01,2013-07-10 21:45:00,
2013-07-10 16:50:00,85.6,41.3,28.76,WNW,292,4.7,6.5,21,0.00,,,0.00,VWS V14.01,2013-07-10 21:50:00,
2013-07-10 16:55:00,85.1,40.8,28.76,West,270,3.1,5.6,21,0.00,,,0.00,VWS V14.01,2013-07-10 21:55:00,
2013-07-10 17:00:00,86.0,42.8,28.76,NNW,338,2.2,4.3,22,0.00,,,0.00,VWS V14.01,2013-07-10 22:00:00,
2013-07-10 17:05:00,87.1,43.7,28.76,NW,315,0.0,3.4,22,0.00,,,0.00,VWS V14.01,2013-07-10 22:05:00,
2013-07-10 17:10:00,86.2,41.7,28.76,WNW,292,2.5,5.6,21,0.00,,,0.00,VWS V14.01,2013-07-10 22:10:00,
2013-07-10 17:15:00,85.5,41.1,28.73,West,270,5.4,6.0,21,0.00,,,0.00,VWS V14.01,2013-07-10 22:15:00,
2013-07-10 17:20:00,84.9,41.9,28.73,NNW,338,3.4,6.0,22,0.00,,,0.00,VWS V14.01,2013-07-10 22:20:00,
2013-07-10 17:25:00,85.6,41.3,28.73,NNW,338,2.7,7.8,21,0.00,,,0.00,VWS V14.01,2013-07-10 22:25:00,
2013-07-10 17:30:00,85.6,41.3,28.73,SSE,158,0.0,5.8,21,0.00,,,0.00,VWS V14.01,2013-07-10 22:30:00,
2013-07-10 17:35:00,86.5,42.0,28.73,ENE,68,0.9,2.9,21,0.00,,,0.00,VWS V14.01,2013-07-10 22:35:00,
2013-07-10 17:40:00,86.2,41.7,28.73,NNE,22,1.6,3.1,21,0.00,,,0.00,VWS V14.01,2013-07-10 22:40:00,
2013-07-10 17:45:00,86.9,42.3,28.73,NW,315,0.0,2.9,21,0.00,,,0.00,VWS V14.01,2013-07-10 22:45:00,
2013-07-10 17:50:00,87.3,42.6,28.73,North,0,3.1,3.1,21,0.00,,,0.00,VWS V14.01,2013-07-10 22:50:00,
2013-07-10 17:55:00,86.5,40.8,28.73,SW,225,2.7,3.8,20,0.00,,,0.00,VWS V14.01,2013-07-10 22:55:00,
2013-07-10 18:00:00,86.2,41.7,28.73,NW,315,6.0,6.0,21,0.00,,,0.00,VWS V14.01,2013-07-10 23:00:00,
2013-07-10 18:05:00,85.8,41.4,28.73,North,0,3.4,6.0,21,0.00,,,0.00,VWS V14.01,2013-07-10 23:05:00,
2013-07-10 18:10:00,86.0,41.6,28.73,NW,315,0.0,3.4,21,0.00,,,0.00,VWS V14.01,2013-07-10 23:10:00,
2013-07-10 18:15:00,86.2,41.7,28.73,NNE,22,0.0,2.9,21,0.00,,,0.00,VWS V14.01,2013-07-10 23:15:00,
2013-07-10 18:20:00,85.8,41.4,28.73,WNW,292,0.0,4.7,21,0.00,,,0.00,VWS V14.01,2013-07-10 23:20:00,
2013-07-10 18:25:00,86.2,41.7,28.73,NNE,22,3.1,3.1,21,0.00,,,0.00,VWS V14.01,2013-07-10 23:25:00,
2013-07-10 18:30:00,85.6,41.3,28.73,SSE,158,1.6,4.3,21,0.00,,,0.00,VWS V14.01,2013-07-10 23:30:00,
2013-07-10 18:35:00,84.6,40.4,28.73,WNW,292,2.7,4.0,21,0.00,,,0.00,VWS V14.01,2013-07-10 23:35:00,
2013-07-10 18:40:00,84.2,40.1,28.73,WNW,292,2.5,4.0,21,0.00,,,0.00,VWS V14.01,2013-07-10 23:40:00,
2013-07-10 18:45:00,84.0,41.1,28.73,NW,315,2.7,4.3,22,0.00,,,0.00,VWS V14.01,2013-07-10 23:45:00,
2013-07-10 18:50:00,84.6,40.4,28.73,NNE,22,0.0,2.7,21,0.00,,,0.00,VWS V14.01,2013-07-10 23:50:00,
2013-07-10 18:55:00,84.6,40.4,28.73,NE,45,2.9,5.6,21,0.00,,,0.00,VWS V14.01,2013-07-10 23:55:00,
2013-07-10 19:00:00,83.3,39.3,28.70,NNE,22,4.0,6.3,21,0.00,,,0.00,VWS V14.01,2013-07-11 00:00:00,
2013-07-10 19:05:00,82.9,39.0,28.70,ENE,68,3.4,5.6,21,0.00,,,0.00,VWS V14.01,2013-07-11 00:05:00,
2013-07-10 19:10:00,82.8,40.1,28.70,NNE,22,2.7,4.9,22,0.00,,,0.00,VWS V14.01,2013-07-11 00:10:00,
2013-07-10 19:15:00,83.7,40.8,28.73,North,0,0.0,3.6,22,0.00,,,0.00,VWS V14.01,2013-07-11 00:15:00,
2013-07-10 19:20:00,83.7,40.8,28.73,NNE,22,0.0,3.1,22,0.00,,,0.00,VWS V14.01,2013-07-11 00:20:00,
2013-07-10 19:25:00,84.0,41.1,28.73,NNE,22,2.2,2.5,22,0.00,,,0.00,VWS V14.01,2013-07-11 00:25:00,
2013-07-10 19:30:00,82.8,40.1,28.70,NE,45,2.7,4.3,22,0.00,,,0.00,VWS V14.01,2013-07-11 00:30:00,
2013-07-10 19:35:00,82.0,40.6,28.70,NNE,22,3.4,4.0,23,0.00,,,0.00,VWS V14.01,2013-07-11 00:35:00,
2013-07-10 19:40:00,81.3,40.0,28.70,NNE,22,3.6,4.0,23,0.00,,,0.00,VWS V14.01,2013-07-11 00:40:00,
2013-07-10 19:45:00,81.0,39.7,28.70,NE,45,2.5,3.8,23,0.00,,,0.00,VWS V14.01,2013-07-11 00:45:00,
2013-07-10 19:50:00,80.8,40.7,28.70,NE,45,0.0,3.1,24,0.00,,,0.00,VWS V14.01,2013-07-11 00:50:00,
2013-07-10 19:55:00,80.4,42.4,28.70,NE,45,0.0,0.0,26,0.00,,,0.00,VWS V14.01,2013-07-11 00:55:00,
2013-07-10 20:00:00,80.1,42.1,28.73,NNE,22,0.0,0.0,26,0.00,,,0.00,VWS V14.01,2013-07-11 01:00:00,
2013-07-10 20:05:00,79.2,41.4,28.73,North,0,1.6,2.9,26,0.00,,,0.00,VWS V14.01,2013-07-11 01:05:00,
2013-07-10 20:10:00,78.8,41.0,28.73,NNE,22,0.0,2.5,26,0.00,,,0.00,VWS V14.01,2013-07-11 01:10:00,
2013-07-10 20:15:00,77.9,41.3,28.70,NNE,22,0.0,0.9,27,0.00,,,0.00,VWS V14.01,2013-07-11 01:15:00,
2013-07-10 20:20:00,77.0,41.4,28.70,NNE,22,0.0,0.0,28,0.00,,,0.00,VWS V14.01,2013-07-11 01:20:00,
2013-07-10 20:25:00,76.3,41.7,28.70,NNE,22,0.0,0.0,29,0.00,,,0.00,VWS V14.01,2013-07-11 01:25:00,
2013-07-10 20:30:00,75.4,41.0,28.70,NNE,22,0.0,0.0,29,0.00,,,0.00,VWS V14.01,2013-07-11 01:30:00,
2013-07-10 20:35:00,74.3,41.7,28.70,NNE,22,0.0,0.0,31,0.00,,,0.00,VWS V14.01,2013-07-11 01:35:00,
2013-07-10 20:40:00,73.0,41.5,28.70,North,0,0.0,0.0,32,0.00,,,0.00,VWS V14.01,2013-07-11 01:40:00,
2013-07-10 20:45:00,72.0,40.5,28.70,NNE,22,1.6,2.2,32,0.00,,,0.00,VWS V14.01,2013-07-11 01:45:00,
2013-07-10 20:50:00,71.1,40.5,28.70,NNE,22,2.0,3.4,33,0.00,,,0.00,VWS V14.01,2013-07-11 01:50:00,
2013-07-10 20:55:00,70.2,39.7,28.70,NNE,22,0.0,3.1,33,0.00,,,0.00,VWS V14.01,2013-07-11 01:55:00,
2013-07-10 21:00:00,69.6,39.3,28.73,NNE,22,0.0,0.0,33,0.00,,,0.00,VWS V14.01,2013-07-11 02:00:00,
2013-07-10 21:05:00,68.7,39.2,28.73,North,0,0.0,0.0,34,0.00,,,0.00,VWS V14.01,2013-07-11 02:05:00,
2013-07-10 21:10:00,68.0,38.6,28.73,NE,45,0.0,0.0,34,0.00,,,0.00,VWS V14.01,2013-07-11 02:10:00,
2013-07-10 21:15:00,67.1,39.3,28.70,ENE,68,0.0,0.0,36,0.00,,,0.00,VWS V14.01,2013-07-11 02:15:00,
2013-07-10 21:20:00,66.2,39.2,28.70,NE,45,0.0,0.0,37,0.00,,,0.00,VWS V14.01,2013-07-11 02:20:00,
2013-07-10 21:25:00,66.4,40.0,28.70,ENE,68,2.7,3.1,38,0.00,,,0.00,VWS V14.01,2013-07-11 02:25:00,
2013-07-10 21:30:00,66.0,40.4,28.73,ENE,68,0.0,2.7,39,0.00,,,0.00,VWS V14.01,2013-07-11 02:30:00,
2013-07-10 21:35:00,65.5,40.5,28.73,North,0,0.0,0.0,40,0.00,,,0.00,VWS V14.01,2013-07-11 02:35:00,
2013-07-10 21:40:00,65.3,41.6,28.73,NNW,338,0.0,0.0,42,0.00,,,0.00,VWS V14.01,2013-07-11 02:40:00,
2013-07-10 21:45:00,64.6,41.6,28.73,ESE,112,0.0,0.0,43,0.00,,,0.00,VWS V14.01,2013-07-11 02:45:00,
2013-07-10 21:50:00,64.0,41.7,28.73,ESE,112,0.0,0.0,44,0.00,,,0.00,VWS V14.01,2013-07-11 02:50:00,
2013-07-10 21:55:00,63.5,41.8,28.73,ESE,112,0.0,0.0,45,0.00,,,0.00,VWS V14.01,2013-07-11 02:55:00,
2013-07-10 22:00:00,63.9,42.1,28.73,WNW,292,0.0,0.0,45,0.00,,,0.00,VWS V14.01,2013-07-11 03:00:00,
2013-07-10 22:05:00,63.5,42.4,28.73,WNW,292,0.0,0.0,46,0.00,,,0.00,VWS V14.01,2013-07-11 03:05:00,
2013-07-10 22:10:00,63.1,42.6,28.73,WNW,292,0.0,0.0,47,0.00,,,0.00,VWS V14.01,2013-07-11 03:10:00,
2013-07-10 22:15:00,63.0,42.4,28.76,WNW,292,0.0,0.0,47,0.00,,,0.00,VWS V14.01,2013-07-11 03:15:00,
2013-07-10 22:20:00,62.2,42.9,28.76,WNW,292,0.0,0.0,49,0.00,,,0.00,VWS V14.01,2013-07-11 03:20:00,
2013-07-10 22:25:00,61.7,43.4,28.76,WNW,292,0.0,0.0,51,0.00,,,0.00,VWS V14.01,2013-07-11 03:25:00,
2013-07-10 22:30:00,62.1,44.8,28.73,WNW,292,0.0,0.0,53,0.00,,,0.00,VWS V14.01,2013-07-11 03:30:00,
2013-07-10 22:35:00,61.9,44.6,28.73,WNW,292,0.0,0.0,53,0.00,,,0.00,VWS V14.01,2013-07-11 03:35:00,
2013-07-10 22:40:00,61.2,43.4,28.73,WNW,292,0.0,0.0,52,0.00,,,0.00,VWS V14.01,2013-07-11 03:40:00,
2013-07-10 22:45:00,61.0,43.8,28.76,WNW,292,0.0,0.0,53,0.00,,,0.00,VWS V14.01,2013-07-11 03:45:00,
2013-07-10 22:50:00,60.6,44.4,28.76,WNW,292,0.0,0.0,55,0.00,,,0.00,VWS V14.01,2013-07-11 03:50:00,
2013-07-10 22:55:00,60.4,44.7,28.76,WNW,292,0.0,0.0,56,0.00,,,0.00,VWS V14.01,2013-07-11 03:55:00,
2013-07-10 23:00:00,60.4,45.2,28.76,WNW,292,0.0,0.0,57,0.00,,,0.00,VWS V14.01,2013-07-11 04:00:00,
2013-07-10 23:05:00,60.1,45.3,28.76,WNW,292,0.0,0.0,58,0.00,,,0.00,VWS V14.01,2013-07-11 04:05:00,
2013-07-10 23:10:00,60.3,45.0,28.76,WNW,292,0.0,0.0,57,0.00,,,0.00,VWS V14.01,2013-07-11 04:10:00,
2013-07-10 23:15:00,60.3,45.0,28.76,WNW,292,0.0,0.0,57,0.00,,,0.00,VWS V14.01,2013-07-11 04:15:00,
2013-07-10 23:20:00,60.6,46.7,28.76,NNW,338,0.0,0.0,60,0.00,,,0.00,VWS V14.01,2013-07-11 04:20:00,
2013-07-10 23:25:00,60.3,45.4,28.76,NNW,338,0.0,0.0,58,0.00,,,0.00,VWS V14.01,2013-07-11 04:25:00,
2013-07-10 23:30:00,60.1,45.3,28.76,NNW,338,0.0,0.0,58,0.00,,,0.00,VWS V14.01,2013-07-11 04:30:00,
2013-07-10 23:35:00,59.7,45.4,28.76,NNW,338,0.0,0.0,59,0.00,,,0.00,VWS V14.01,2013-07-11 04:35:00,
2013-07-10 23:40:00,59.4,45.0,28.76,NNW,338,0.0,0.0,59,0.00,,,0.00,VWS V14.01,2013-07-11 04:40:00,
2013-07-10 23:45:00,59.2,44.9,28.76,NNW,338,0.0,0.0,59,0.00,,,0.00,VWS V14.01,2013-07-11 04:45:00,
2013-07-10 23:50:00,59.4,45.5,28.76,NNW,338,0.0,0.0,60,0.00,,,0.00,VWS V14.01,2013-07-11 04:50:00,
2013-07-10 23:55:00,59.0,45.2,28.76,NNW,338,0.0,0.0,60,0.00,,,0.00,VWS V14.01,2013-07-11 04:55:00,